Regional Weather Roundup
Issued by NWS

Home | Current Version | Previous Version | Text Only | Print | Product List | Glossary Off
Versions: 1 2 3 4 5 6 7 8 9 10 11 12 13 14 15 16 17 18 19 20 21 22 23 24 25 26 27

000
ASUS45 KBOU 232107
RWRCO

WEATHER ROUNDUP FOR COLORADO
NATIONAL WEATHER SERVICE DENVER/BOULDER CO
300 PM MDT SUN JUL 23 2017

NOTE: "FAIR" INDICATES FEW OR NO CLOUDS BELOW 12000 FEET WITH NO
SIGNIFICANT WEATHER AND/OR OBSTRUCTIONS TO VISIBILITY.

COZ001>005-013-030-031-232200-
...NORTHWEST COLORADO...

CITY           SKY/WX    TMP DP  RH WIND       PRES   REMARKS
CRAIG          FAIR      91  23   8 VRB5      30.18F
HAYDEN         FAIR      84  27  12 E3        30.20F
MEEKER         FAIR      89  24   9 SW7       30.18F
RABBIT EARS PA MOCLDY    68  34  28 CALM      30.55F
STEAMBOAT SPGS FAIR      86  31  14 N7        30.22F
WALDEN         FAIR      79  23  12 W3        30.36F
$$

COZ006>008-011-232200-
...WEST CENTRAL VALLEYS...

CITY           SKY/WX    TMP DP  RH WIND       PRES   REMARKS
GRAND JUNCTION FAIR      95  30  10 SW3       30.05F
MONTROSE       FAIR      89  42  19 VRB3      30.13F
EAGLE          NOT AVBL
RIFLE          FAIR      93  35  13 NW9       30.10F
DELTA          FAIR      96  37  13 SW5       30.08F
NUCLA          FAIR      90  36  14 NW6       30.18F
$$

COZ017>023-064>068-232200-
...SOUTHWEST COLORADO...

CITY           SKY/WX    TMP DP  RH WIND       PRES   REMARKS
DURANGO        FAIR      81  43  26 SE12      30.22F
CORTEZ         FAIR      90  47  22 VRB6      30.14F
PAGOSA SPRINGS FAIR      80  33  18 S12G20    30.32F
TELLURIDE      CLOUDY    60  49  68 S5        30.50R
WOLF CREEK PAS CLOUDY    55  34  44 E3        30.71F
$$

COZ009-010-012-014-032>034-037-058>063-232200-
...CENTRAL COLORADO...

CITY           SKY/WX    TMP DP  RH WIND       PRES   REMARKS
ASPEN          FAIR      85  32  15 VRB5      30.27F
BUENA VISTA    FAIR      80  38  22 E15G21    30.35S
COPPER MTN     CLOUDY    63  34  34 SE13G18   30.67F
BERTHOUD PASS  FAIR      52  36  54 SE18      30.74R
COTTONWOOD PAS FAIR      73  34  23 E9G24     30.51S
GUNNISON       FAIR      81  37  20 N8        30.29
KREMMLING      FAIR      91  18   6 W7        30.28F
LEADVILLE      FAIR      71  26  18 W7        30.46F
MONARCH PASS   PTSUNNY   59  41  51 SW10      30.78F
SALIDA         FAIR      84  34  16 E6        30.38S
SUNLIGHT       PTSUNNY   68  37  32 NW3       30.59F
WILKERSON PASS PTSUNNY   63  36  36 CALM      30.66F
$$

COZ069>075-232200-
...SAN LUIS VALLEY/SANGRE DE CRISTO MOUNTAINS...

CITY           SKY/WX    TMP DP  RH WIND       PRES   REMARKS
ALAMOSA        FAIR      81  46  29 E7        30.30F
DEL NORTE      FAIR      78  39  24 SE3       30.35F
LA VETA PASS   NOT AVBL
SAGUACHE         N/A    N/A N/A N/A MISG        N/A
$$

COZ035-036-038>040-232200-
...NORTHERN COLORADO FRONT RANGE...

CITY           SKY/WX    TMP DP  RH WIND       PRES   REMARKS
DENVER INTL AP PTSUNNY   89  45  21 VRB7      30.15F
DMNS CITY PARK   N/A     92  43  18 E5        30.14F
AURORA         PTSUNNY   86  48  26 E10       30.18F
FRONT RANGE AP PTSUNNY   88  43  20 SE14G20   30.18S
ERIE MUNI ARPT FAIR      91  36  14 SE5       30.13F
BOULDER MUN AP FAIR      91  43  18 E6        30.15F
CENTENNIAL     PTSUNNY   86  45  23 S9        30.19F
BROOMFIELD     FAIR      88  39  18 CALM      30.19S
FORT COLLINS   FAIR      87  51  28 CALM      30.15F
LONGMONT       FAIR      91  46  21 SW5       30.15S
$$

COZ041-046-047-076>085-087-088-232200-
...PIKES PEAK/PALMER DIVIDE AND SOUTHERN FOOTHILLS...

CITY           SKY/WX    TMP DP  RH WIND       PRES   REMARKS
COLO. SPRINGS  PTSUNNY   83  44  25 SE6       30.25F
A. F. ACADEMY  FAIR      79  45  30 S10       30.25F
SCHRIEVER AFB  FAIR      82  46  28 S8        30.25F
CHEYENNE MTN   PTSUNNY   79  48  33 S7        30.25F
ELLICOTT       PTSUNNY  N/A N/A N/A S23       30.23F THUNDER
FALCON           N/A     82  43  24 E10       30.31F
FORT CARSON    FAIR      85  47  26 CALM      30.21F
LIMON          FAIR      86  45  23 E8        30.18F
MONUMENT HILL  FAIR      79  46  31 S10G17    30.32S
CANON CITY     SUNNY     90  52  27 E7        30.16F
WALSENBURG     FAIR      86  46  25 SE8       30.21F
TRINIDAD       FAIR      90  41  18 NE8G17    30.19F
$$

COZ042>045-048>051-090-091-232200-
...NORTHEAST COLORADO...

CITY           SKY/WX    TMP DP  RH WIND       PRES   REMARKS
GREELEY ARPT   FAIR      90  50  25 W6        30.12F
AKRON          FAIR      91  43  18 SE7G20    30.14F
BURLINGTON     FAIR      89  53  29 E10G21    30.13F
WRAY           NOT AVBL
YUMA           FAIR      90  30  12 S9        30.11S
STERLING       FAIR      93  46  20 S7        30.07F
HOLYOKE        FAIR      95  46  18 S6        30.09F
FORT MORGAN    FAIR      93  42  17 SE10      30.12F
$$

COZ086-089-092>099-232200-
...SOUTHEAST COLORADO...

CITY           SKY/WX    TMP DP  RH WIND       PRES   REMARKS
PUEBLO         FAIR      94  39  14 SE8G16    30.10F
LA JUNTA       FAIR      92  55  28 E13       30.09F
LAMAR          FAIR      91  58  32 E13G21    30.05F
SPRINGFIELD      N/A     87  56  34 NE10G20   30.10F
$$




USA.gov is the U.S. government's official web portal to all federal, state and local government web resources and services.